TimeCDT,TemperatureF,Dew PointF,Humidity,Sea Level PressureIn,VisibilityMPH,Wind Direction,Wind SpeedMPH,Gust SpeedMPH,PrecipitationIn,Events,Conditions,WindDirDegrees,DateUTC
12:56 AM,64.9,63.0,93,30.06,8.0,Calm,Calm,-,N/A,,Partly Cloudy,0,2012-11-03 05:56:00
1:46 AM,64.4,62.6,94,30.07,5.0,Calm,Calm,-,N/A,,Partly Cloudy,0,2012-11-03 06:46:00
1:56 AM,64.0,62.1,93,30.06,5.0,Calm,Calm,-,N/A,,Partly Cloudy,0,2012-11-03 06:56:00
2:03 AM,64.4,62.6,94,30.07,-9999.0,WSW,3.5,-,N/A,,Partly Cloudy,240,2012-11-03 07:03:00
2:14 AM,64.4,62.6,94,30.07,5.0,Calm,Calm,-,N/A,,Partly Cloudy,0,2012-11-03 07:14:00
2:56 AM,63.0,61.0,93,30.06,5.0,Calm,Calm,-,N/A,,Partly Cloudy,0,2012-11-03 07:56:00
3:56 AM,63.0,61.0,93,30.06,5.0,WSW,3.5,-,N/A,,Partly Cloudy,250,2012-11-03 08:56:00
4:56 AM,62.1,61.0,96,30.08,6.0,WSW,3.5,-,N/A,,Partly Cloudy,250,2012-11-03 09:56:00
5:38 AM,60.8,60.8,100,30.09,2.5,West,3.5,-,N/A,,Partly Cloudy,260,2012-11-03 10:38:00
5:56 AM,61.0,60.1,97,30.09,2.5,West,3.5,-,N/A,,Partly Cloudy,260,2012-11-03 10:56:00
6:56 AM,61.0,60.1,97,30.10,2.5,West,3.5,-,N/A,,Partly Cloudy,260,2012-11-03 11:56:00
7:30 AM,60.8,59.0,94,30.12,1.2,Calm,Calm,-,N/A,,Partly Cloudy,0,2012-11-03 12:30:00
7:56 AM,61.0,60.1,97,30.12,1.8,West,3.5,-,N/A,,Partly Cloudy,260,2012-11-03 12:56:00
8:30 AM,62.6,60.8,94,30.14,0.8,WNW,3.5,-,N/A,,Scattered Clouds,290,2012-11-03 13:30:00
8:50 AM,62.6,62.6,100,30.14,1.5,West,3.5,-,N/A,,Scattered Clouds,280,2012-11-03 13:50:00
8:56 AM,63.0,62.1,97,30.14,1.8,West,4.6,-,N/A,,Scattered Clouds,270,2012-11-03 13:56:00
9:04 AM,64.4,62.6,94,30.14,3.0,West,4.6,-,N/A,,Partly Cloudy,270,2012-11-03 14:04:00
9:56 AM,70.0,64.0,81,30.14,10.0,WNW,6.9,-,N/A,,Clear,290,2012-11-03 14:56:00
10:56 AM,75.0,62.1,64,30.14,10.0,WNW,9.2,-,N/A,,Clear,300,2012-11-03 15:56:00
11:56 AM,79.0,62.1,56,30.13,10.0,WNW,9.2,-,N/A,,Clear,290,2012-11-03 16:56:00
12:56 PM,81.0,61.0,50,30.11,10.0,Calm,Calm,-,N/A,,Partly Cloudy,0,2012-11-03 17:56:00
1:56 PM,82.0,55.9,41,30.08,10.0,WNW,3.5,-,N/A,,Partly Cloudy,300,2012-11-03 18:56:00
2:56 PM,82.9,57.0,41,30.06,10.0,Variable,3.5,-,N/A,,Partly Cloudy,0,2012-11-03 19:56:00
3:56 PM,82.9,57.0,41,30.06,10.0,Calm,Calm,-,N/A,,Partly Cloudy,0,2012-11-03 20:56:00
4:56 PM,81.0,55.9,42,30.05,10.0,Calm,Calm,-,N/A,,Scattered Clouds,0,2012-11-03 21:56:00
5:56 PM,73.9,63.0,68,30.05,10.0,SSW,6.9,-,N/A,,Partly Cloudy,210,2012-11-03 22:56:00
6:56 PM,70.0,63.0,78,30.07,10.0,SSW,4.6,-,N/A,,Clear,210,2012-11-03 23:56:00
7:56 PM,68.0,63.0,84,30.08,10.0,SW,6.9,-,N/A,,Clear,220,2012-11-04 00:56:00
8:56 PM,66.9,64.0,90,30.09,8.0,SW,6.9,-,N/A,,Clear,230,2012-11-04 01:56:00
9:56 PM,66.0,63.0,90,30.09,9.0,SW,5.8,-,N/A,,Clear,230,2012-11-04 02:56:00
10:56 PM,64.9,63.0,93,30.09,8.0,WSW,3.5,-,N/A,,Clear,240,2012-11-04 03:56:00
11:56 PM,64.0,62.1,93,30.09,8.0,WSW,3.5,-,N/A,,Clear,240,2012-11-04 04:56:00